Stations météo

Publicité
Toulouse/Blagnac, France (7630): Température de l'air & dewpoint: 15.06.2018 18:00:00 - 21.06.2018 18:00:00 (CEST)Toulouse/Blagnac, France (7630): Température de l'air 5cm: 15.06.2018 18:00:00 - 21.06.2018 18:00:00 (CEST)Toulouse/Blagnac, France (7630): Température de l'air -20cm & Température de l'air -100cm: 15.06.2018 18:00:00 - 21.06.2018 18:00:00 (CEST)Toulouse/Blagnac, France (7630): Vitesse du vent & gusts: 15.06.2018 18:00:00 - 21.06.2018 18:00:00 (CEST)Toulouse/Blagnac, France (7630): Direction du vent: 15.06.2018 18:00:00 - 21.06.2018 18:00:00 (CEST)Toulouse/Blagnac, France (7630): reduced air pressure: 15.06.2018 18:00:00 - 21.06.2018 18:00:00 (CEST)Toulouse/Blagnac, France (7630): visibility: 15.06.2018 18:00:00 - 21.06.2018 18:00:00 (CEST)Toulouse/Blagnac, France (7630): Ensoleillement: 15.06.2018 18:00:00 - 21.06.2018 18:00:00 (CEST)Toulouse/Blagnac, France (7630): Quantités de précipitations: 15.06.2018 18:00:00 - 21.06.2018 18:00:00 (CEST)
Date & Time tt [°C] td [°C] tt 5cm [°C] tt -20cm [°C] tt -100cm [°C] ff [km/h] ff [knt] fx [km/h] fx [knt] dd ppp [hPa] vv [km] sd [min] rr [mm]
21.06.2018 18:00:00 - - - - - - - - - - - - - -
21.06.2018 17:00:00 29,4 21,1 37,0 22,3 18,0 18 10 26 14 WNW 1017,6 19 60 0,0
21.06.2018 16:00:00 28,3 20,6 35,8 22,0 18,0 12 6 27 15 NW 1018,1 20 60 0,0
21.06.2018 15:00:00 27,0 20,8 36,6 21,7 18,0 9 5 26 14 NW 1018,4 16 60 0,0
21.06.2018 14:00:00 25,3 19,4 31,3 21,6 18,0 9 5 22 12 WNW 1019,0 13 53 0,0
21.06.2018 13:00:00 23,6 18,9 26,0 21,5 18,0 11 6 21 11 W 1019,5 13 16 0,0
21.06.2018 12:00:00 21,9 18,7 23,3 21,6 18,0 13 7 25 14 W 1019,9 13 0 0,0
21.06.2018 11:00:00 21,0 18,4 22,5 21,6 18,0 14 8 23 12 W 1019,8 10 0 0,0
21.06.2018 10:00:00 20,3 18,2 21,3 21,7 18,0 14 8 27 15 WNW 1019,9 9 0 0,0
21.06.2018 09:00:00 20,4 18,7 20,5 21,7 17,9 18 10 26 14 WNW 1019,7 7 0 0,0
21.06.2018 08:00:00 20,1 18,8 19,6 21,9 18,0 16 9 24 13 W 1019,0 5 0 0,0
21.06.2018 07:00:00 19,9 18,2 15,3 22,0 17,9 13 7 23 12 W 1018,5 9 9 0,0
21.06.2018 06:00:00 18,8 15,5 15,0 22,1 17,9 6 4 11 6 S 1018,2 18 0 0,0
21.06.2018 05:00:00 19,3 15,0 15,7 22,3 17,9 7 4 12 6 SSE 1017,8 21 0 0,0
21.06.2018 04:00:00 20,0 14,6 16,1 22,4 17,9 9 5 12 6 SSW 1017,9 25 0 0,0
21.06.2018 03:00:00 20,7 14,6 16,0 22,5 17,9 10 5 12 6 SSW 1018,1 24 0 0,0
21.06.2018 02:00:00 21,7 14,3 16,2 22,7 18,0 4 2 9 5 S 1018,2 26 0 0,0
21.06.2018 01:00:00 22,5 14,6 17,4 22,7 17,9 6 4 21 12 S 1018,0 27 0 0,0
21.06.2018 00:00:00 24,1 14,8 21,2 22,8 17,9 14 8 24 13 SSE 1017,8 27 0 0,0
20.06.2018 23:00:00 25,0 16,7 20,2 22,9 17,9 11 6 24 13 S 1017,8 26 0 0,0
20.06.2018 22:00:00 26,0 17,6 22,0 22,9 17,9 9 5 19 10 SSE 1017,0 31 12 0,0
20.06.2018 21:00:00 27,8 17,6 26,2 22,8 17,9 11 6 22 12 SSE 1016,3 13 60 0,0
20.06.2018 20:00:00 29,7 18,2 30,6 22,7 17,9 14 7 22 12 SSE 1016,0 7 38 0,0
20.06.2018 19:00:00 31,1 17,0 37,8 22,5 17,9 7 4 23 12 ESE 1015,8 16 60 0,0
20.06.2018 18:00:00 31,1 17,0 38,8 22,3 17,9 8 4 30 16 S 1016,1 16 60 0,0
20.06.2018 17:00:00 30,8 19,5 40,1 21,9 17,9 16 9 31 17 SSE 1016,3 18 60 0,0
20.06.2018 16:00:00 30,8 19,8 37,6 21,6 17,9 13 7 27 15 S 1016,6 19 55 0,0
20.06.2018 15:00:00 29,6 18,1 39,1 21,3 17,9 16 9 27 15 S 1017,0 23 60 0,0
20.06.2018 14:00:00 29,0 18,1 37,3 20,9 17,9 12 6 36 19 SE 1017,5 20 60 0,0
20.06.2018 13:00:00 27,9 18,3 37,4 20,7 17,9 16 8 33 18 SSE 1018,1 23 60 0,0
20.06.2018 12:00:00 27,1 18,1 36,7 20,6 17,9 10 5 23 12 SE 1018,3 26 60 0,0
20.06.2018 11:00:00 26,2 17,3 35,0 20,5 17,9 8 4 16 9 ESE 1018,4 24 60 0,0
20.06.2018 10:00:00 24,3 16,0 30,2 20,5 17,9 5 3 10 5 E 1018,9 9 60 0,0
20.06.2018 09:00:00 21,3 16,3 24,4 20,6 17,9 4 2 8 4 SSE 1019,1 20 60 0,0
20.06.2018 08:00:00 19,0 16,0 15,3 20,7 17,9 4 2 9 5 SSW 1019,3 9 60 0,0
20.06.2018 07:00:00 16,9 15,2 13,5 20,8 17,9 5 3 11 6 SSE 1019,4 13 23 0,0
20.06.2018 06:00:00 16,3 14,8 13,7 20,9 17,9 6 3 10 5 SSE 1019,0 12 0 0,0
20.06.2018 05:00:00 16,8 15,1 13,4 21,1 17,9 7 4 10 5 S 1019,0 14 0 0,0
20.06.2018 04:00:00 17,3 15,3 13,3 21,2 17,9 5 3 9 5 S 1019,3 23 0 0,0
20.06.2018 03:00:00 18,1 15,4 14,3 21,4 17,9 8 4 10 6 S 1019,5 21 0 0,0
20.06.2018 02:00:00 19,3 16,0 15,2 21,4 17,9 5 3 10 5 S 1019,7 14 0 0,0
20.06.2018 01:00:00 19,8 15,9 15,3 21,5 17,8 6 3 9 5 S 1019,8 22 0 0,0
20.06.2018 00:00:00 21,3 15,6 16,1 21,6 17,9 6 3 11 6 SSW 1019,8 23 0 0,0
19.06.2018 23:00:00 23,0 15,1 16,9 21,7 17,9 3 2 13 7 S 1019,8 26 0 0,0
19.06.2018 22:00:00 24,2 15,4 20,8 21,7 17,9 9 5 16 9 W 1019,5 26 14 0,0
19.06.2018 21:00:00 26,0 15,4 24,5 21,6 17,9 10 5 18 10 WNW 1019,3 20 56 0,0
19.06.2018 20:00:00 27,4 15,7 32,2 21,5 17,9 4 2 17 9 S 1019,5 29 60 0,0
19.06.2018 19:00:00 27,5 15,5 32,9 21,3 17,9 9 5 20 11 NW 1019,8 40 60 0,0
19.06.2018 18:00:00 27,3 15,6 35,1 21,1 17,9 14 7 24 13 N 1020,1 37 60 0,0
19.06.2018 17:00:00 26,7 14,8 28,1 20,9 17,8 9 5 21 12 NNE 1020,6 24 50 0,0
19.06.2018 16:00:00 25,8 14,3 29,2 20,6 17,8 9 5 22 12 NNE 1021,1 33 39 0,0
19.06.2018 15:00:00 24,9 14,7 28,3 20,3 17,9 10 5 28 15 NW 1021,8 22 35 0,0
19.06.2018 14:00:00 25,0 15,3 29,8 20,0 17,9 14 7 28 15 NW 1022,1 33 40 0,0
19.06.2018 13:00:00 24,7 14,5 30,4 19,8 17,9 13 7 32 17 N 1022,6 31 54 0,0
19.06.2018 12:00:00 23,5 14,8 30,1 19,7 17,9 16 8 26 14 NW 1022,9 18 58 0,0
19.06.2018 11:00:00 22,6 15,7 28,7 19,5 17,9 13 7 21 12 NW 1023,2 20 57 0,0
19.06.2018 10:00:00 21,1 15,9 27,2 19,5 17,8 7 4 17 9 WNW 1024,0 18 60 0,0
19.06.2018 09:00:00 19,5 15,6 21,8 19,6 17,9 7 4 16 9 W 1024,5 14 57 0,0
19.06.2018 08:00:00 18,0 15,3 17,4 19,6 17,9 8 5 19 11 WNW 1024,7 11 12 0,0
19.06.2018 07:00:00 17,6 15,2 15,9 19,7 17,8 9 5 14 8 W 1024,8 25 15 0,0
19.06.2018 06:00:00 17,1 15,3 16,2 19,7 17,9 9 5 19 10 W 1024,9 22 0 0,0
19.06.2018 05:00:00 17,7 15,5 17,0 19,8 17,9 13 7 22 12 NNW 1024,6 28 0 0,0
19.06.2018 04:00:00 17,9 15,9 16,8 19,9 17,9 11 6 17 9 NW 1024,6 24 0 0,0
19.06.2018 03:00:00 17,5 15,5 16,1 20,0 17,9 10 6 17 9 NW 1024,9 26 0 0,0
19.06.2018 02:00:00 17,6 15,4 16,4 20,1 17,9 13 7 22 12 WNW 1024,9 26 0 0,0
19.06.2018 01:00:00 18,5 15,4 16,0 20,1 17,9 15 8 22 12 W 1025,1 25 0 0,0
19.06.2018 00:00:00 18,5 14,8 16,0 20,2 17,9 10 5 16 9 WNW 1025,3 30 0 0,0
18.06.2018 23:00:00 19,2 14,9 16,8 20,2 17,9 9 5 16 8 WNW 1025,3 29 0 0,0
18.06.2018 22:00:00 19,9 14,7 17,7 20,2 17,9 9 5 19 11 WNW 1024,6 6 11 0,0
18.06.2018 21:00:00 21,7 14,8 21,5 20,2 17,9 12 6 23 13 NNW 1024,4 31 56 0,0
18.06.2018 20:00:00 22,4 15,0 22,3 20,1 17,8 16 9 22 12 NNW 1024,3 26 26 0,0
18.06.2018 19:00:00 22,0 14,4 23,6 20,0 17,8 14 8 25 13 NNW 1024,4 35 1 0,0
18.06.2018 18:00:00 22,4 14,3 25,8 19,8 17,9 18 10 29 15 NW 1024,7 30 24 0,0
18.06.2018 17:00:00 22,6 14,7 27,2 19,6 17,9 18 10 37 20 NW 1024,9 27 37 0,0
18.06.2018 16:00:00 22,4 14,5 26,7 19,4 17,9 18 10 31 17 NNW 1025,1 30 32 0,0
18.06.2018 15:00:00 22,4 15,0 27,2 19,2 17,9 17 9 31 17 NW 1025,3 35 36 0,0
18.06.2018 14:00:00 20,7 14,8 25,6 19,1 17,9 16 9 33 18 NW 1025,8 20 28 0,0
18.06.2018 13:00:00 18,9 14,2 19,0 19,0 17,9 19 10 29 16 WNW 1026,5 31 6 0,0
18.06.2018 12:00:00 17,9 13,2 21,0 18,9 17,8 18 10 27 14 WNW 1026,7 10 19 0,0
18.06.2018 11:00:00 17,1 13,8 18,0 19,0 17,9 14 8 26 14 W 1026,9 10 5 0,0
18.06.2018 10:00:00 16,1 12,6 17,0 19,0 17,9 18 10 27 15 W 1027,0 13 0 0,0
18.06.2018 09:00:00 15,7 11,7 15,4 19,1 17,9 14 8 23 12 WSW 1026,7 25 0 0,0
18.06.2018 08:00:00 15,0 11,8 14,5 19,2 17,9 11 6 24 13 W 1026,5 26 0 0,0
18.06.2018 07:00:00 14,5 11,8 13,7 19,2 17,8 16 9 24 13 W 1026,3 24 10 0,0
18.06.2018 06:00:00 14,3 11,6 12,8 19,3 17,9 16 9 27 15 W 1026,1 27 0 0,0
18.06.2018 05:00:00 13,9 11,6 12,7 19,5 17,8 15 8 27 14 W 1025,7 28 0 0,0
18.06.2018 04:00:00 14,6 11,7 13,4 19,6 17,9 16 8 25 14 W 1025,8 31 0 0,0
18.06.2018 03:00:00 15,1 11,9 13,9 19,7 17,9 16 9 23 12 WNW 1025,5 33 0 0,0
18.06.2018 02:00:00 15,9 12,1 14,2 19,7 17,9 13 7 24 13 W 1025,3 18 0 0,0
18.06.2018 01:00:00 17,4 12,3 16,3 19,8 17,9 18 10 29 16 WNW 1025,2 42 0 0,0
18.06.2018 00:00:00 18,2 12,9 17,3 19,9 17,9 19 11 30 16 WNW 1025,1 42 0 0,0
17.06.2018 23:00:00 19,1 12,8 17,6 19,9 17,9 14 8 24 13 W 1024,7 44 0 0,0
17.06.2018 22:00:00 19,0 12,7 17,6 19,9 17,9 14 8 24 13 W 1024,2 19 0 0,0
17.06.2018 21:00:00 20,1 12,3 19,3 19,9 17,9 16 9 28 15 W 1023,8 50 12 0,0
17.06.2018 20:00:00 20,7 12,4 20,8 19,9 17,9 18 10 31 17 WNW 1023,7 28 40 0,0
17.06.2018 19:00:00 21,2 11,5 22,3 19,8 17,9 23 12 37 20 WNW 1023,2 30 36 0,0
17.06.2018 18:00:00 21,4 12,5 23,5 19,7 17,8 18 10 35 19 WNW 1023,2 44 32 0,0
17.06.2018 17:00:00 20,9 13,3 20,9 19,6 17,9 17 9 30 16 W 1023,6 31 15 0,0
17.06.2018 16:00:00 19,1 12,6 20,9 19,5 17,8 16 9 26 14 NNW 1024,1 48 2 0,0
17.06.2018 15:00:00 19,6 13,1 22,4 19,5 17,9 17 9 34 18 NW 1023,8 34 0 0,0
17.06.2018 14:00:00 18,9 12,4 19,6 19,4 17,9 19 10 29 16 NW 1024,1 20 0 0,0
17.06.2018 13:00:00 18,3 11,8 20,4 19,3 17,9 19 10 30 16 WNW 1023,9 24 12 0,0
17.06.2018 12:00:00 19,1 12,4 20,9 19,3 17,9 14 8 35 19 W 1023,9 30 15 0,0
17.06.2018 11:00:00 17,4 11,4 19,4 19,3 17,9 19 10 29 15 W 1024,2 30 0 0,0
17.06.2018 10:00:00 17,2 11,7 18,9 19,3 17,9 13 7 24 13 W 1024,3 35 3 0,0
17.06.2018 09:00:00 16,2 11,6 15,6 19,5 17,9 12 7 22 12 W 1024,3 33 10 0,0
17.06.2018 08:00:00 14,8 11,2 14,4 19,5 17,9 14 8 25 14 WNW 1023,9 32 1 0,0
17.06.2018 07:00:00 14,4 11,0 13,8 19,6 17,9 18 10 24 13 WNW 1023,2 33 0 0,0
17.06.2018 06:00:00 14,2 11,2 12,9 19,7 17,9 11 6 23 12 WNW 1022,7 31 0 0,0
17.06.2018 05:00:00 13,9 11,2 12,8 19,9 17,9 15 8 22 12 W 1022,6 29 0 0,0
17.06.2018 04:00:00 14,3 11,3 13,0 20,0 17,8 12 7 19 10 WNW 1022,3 31 0 0,0
17.06.2018 03:00:00 15,0 11,8 13,6 20,1 17,9 13 7 19 10 WNW 1022,2 32 0 0,0
17.06.2018 02:00:00 16,4 12,4 14,8 20,2 17,9 13 7 25 13 NW 1022,1 30 0 0,0
17.06.2018 01:00:00 18,0 12,0 17,2 20,2 17,9 18 10 27 15 W 1021,9 43 0 0,0
17.06.2018 00:00:00 18,7 12,4 17,9 20,4 17,9 17 9 27 15 W 1021,6 45 0 0,0
16.06.2018 23:00:00 19,0 12,7 17,2 20,4 17,9 16 9 25 13 W 1021,3 45 0 0,0
16.06.2018 22:00:00 18,9 12,2 17,2 20,4 17,9 13 7 22 12 WNW 1020,3 18 0 0,0
16.06.2018 21:00:00 20,2 12,2 19,3 20,4 17,9 17 9 26 14 WNW 1019,7 46 7 0,0
16.06.2018 20:00:00 20,6 12,8 20,3 20,3 17,8 18 10 34 18 WNW 1019,2 44 44 0,0
16.06.2018 19:00:00 21,5 12,9 22,7 20,2 17,8 19 10 34 18 WNW 1018,6 33 44 0,0
16.06.2018 18:00:00 22,0 13,4 23,7 20,1 17,9 23 12 33 18 W 1018,7 40 29 0,0
16.06.2018 17:00:00 21,4 14,1 23,9 19,9 17,8 17 9 32 18 W 1018,8 52 2 0,0
16.06.2018 16:00:00 21,3 14,0 24,9 19,8 17,8 21 11 32 17 WNW 1019,1 32 1 0,0
16.06.2018 15:00:00 21,0 14,2 25,5 19,6 17,8 20 11 33 18 NW 1019,3 38 34 0,0
16.06.2018 14:00:00 20,4 13,8 25,3 19,5 17,8 18 10 31 17 NW 1019,5 41 21 0,0
16.06.2018 13:00:00 19,4 13,3 23,5 19,5 17,8 14 8 29 16 NNW 1019,8 43 14 0,0
16.06.2018 12:00:00 18,8 13,6 21,2 19,5 17,9 19 11 30 16 NNW 1019,7 37 5 0,0
16.06.2018 11:00:00 17,7 13,2 19,8 19,5 17,8 20 11 27 15 NW 1019,5 30 0 0,0
16.06.2018 10:00:00 16,8 13,7 17,4 19,5 17,8 17 9 26 14 NW 1019,3 20 0 0,0
16.06.2018 09:00:00 16,1 13,4 15,8 19,6 17,8 16 8 26 14 NNW 1019,1 24 0 0,0
16.06.2018 08:00:00 15,7 14,1 15,0 19,6 17,8 16 9 26 14 NNW 1019,0 20 0 0,2
16.06.2018 07:00:00 15,7 15,1 15,5 19,7 17,8 15 8 23 12 N 1018,8 1,8 0 3,3
16.06.2018 06:00:00 16,3 15,7 16,1 19,8 17,9 12 7 21 11 WNW 1018,3 1,5 0 3,4
16.06.2018 05:00:00 16,9 16,1 16,5 19,8 17,8 10 5 18 10 WNW 1018,2 12 0 0,0
16.06.2018 04:00:00 17,0 15,9 16,5 19,9 17,9 13 7 27 14 NW 1018,2 9 0 0,0
16.06.2018 03:00:00 17,5 15,7 16,7 19,9 17,8 14 7 23 12 NW 1018,5 30 0 0,0
16.06.2018 02:00:00 17,4 15,0 16,8 20,0 17,8 14 7 25 13 WNW 1018,8 21 0 0,0
16.06.2018 01:00:00 17,9 15,0 17,5 20,1 17,9 16 9 27 14 W 1018,8 21 0 0,0
16.06.2018 00:00:00 18,0 15,1 17,5 20,1 17,8 16 8 26 14 W 1018,9 25 0 0,0
15.06.2018 23:00:00 18,6 14,9 18,0 20,2 17,9 18 10 27 14 W 1018,8 33 0 0,0
15.06.2018 22:00:00 19,1 14,6 18,5 20,2 17,9 13 7 26 14 WNW 1018,5 37 0 0,0
15.06.2018 21:00:00 19,5 14,7 19,1 20,2 17,8 16 9 24 13 W 1018,1 36 0 0,0
15.06.2018 20:00:00 19,5 14,3 19,5 20,2 17,8 16 9 33 18 W 1018,1 40 0 0,0
15.06.2018 19:00:00 20,3 14,2 20,7 20,2 17,9 19 10 29 16 WNW 1017,9 37 0 0,0
15.06.2018 18:00:00 20,4 13,4 20,7 20,1 17,8 23 13 35 19 NW 1017,9 31 0 0,0

tt = Température de l'air
td = dewpoint
tt 5cm = Température de l'air 5cm
tt -20cm = Température de l'air -20cm
tt -100cm = Température de l'air -100cm
ff = Vitesse du vent
fx = gusts
dd = Direction du vent
ppp = reduced air pressure
vv = visibility
sd = Ensoleillement
rr = Quantités de précipitations

stations d'obs. à proximité